RH
75 66 58 54 47 40 35 38 40 38 40 45 45 45 44 43 41 34 33 30 31 32 33 33 33 34 37 37 34 38 43 47 45 53 56 57 56 54 53 52 43 41 41
94 84 69 60 58 50 41 37 40 39 40 44 45 46 46 44 44 47 38 35 34 36 34 33 34 34 39 37 36 38 43 44 44 46 50 55 56 52 47 54 48 46 47
71 92 90 70 59 58 52 41 42 42 40 44 47 51 54 56 56 52 48 44 38 41 40 39 37 38 39 43 44 44 46 50 48 46 46 50 50 54 51 54 52 47 47
69 71 81 93 72 62 60 47 43 44 43 48 54 56 59 59 55 53 51 50 43 44 46 46 39 42 43 45 48 40 49 50 54 50 39 44 45 50 51 48 50 48 40
78 84 72 81 78 73 64 58 46 46 45 50 51 55 54 50 51 53 54 48 50 47 48 47 45 46 48 48 50 52 48 49 44 51 49 44 49 44 48 50 51 44 40
68 76 79 76 68 72 67 65 53 50 47 51 51 54 55 53 58 57 55 52 53 55 51 48 49 49 50 51 53 52 50 49 46 43 42 40 41 41 42 45 46 44 40
63 75 80 87 78 81 77 70 59 56 49 53 52 50 54 57 59 57 55 54 52 54 55 52 52 50 53 50 50 52 52 51 52 51 44 41 44 44 44 48 46 40 32
43 64 70 73 80 84 82 74 63 60 53 53 53 51 53 58 54 55 53 53 52 52 52 52 49 48 45 47 49 52 54 55 58 57 56 48 46 42 36 41 44 44 35
41 45 55 62 65 73 82 76 71 66 66 59 56 54 54 57 56 55 52 52 52 51 54 52 50 48 47 46 47 48 49 49 51 52 49 37 34 40 40 42 43 48 47
50 53 51 46 48 62 70 73 69 69 66 63 54 54 54 59 57 57 58 55 57 55 54 51 48 46 44 44 46 44 38 37 45 41 38 38 36 39 42 50 48 47 50
42 50 54 56 51 45 66 70 68 64 62 57 58 62 65 67 64 64 58 55 56 55 50 47 44 41 36 34 31 30 30 30 32 33 34 37 38 41 40 46 47 48 47
40 52 59 60 61 58 63 60 67 65 64 61 60 65 69 72 70 61 61 54 53 48 46 40 34 28 26 24 25 26 28 27 31 34 39 37 30 48 43 43 46 45 43
34 41 54 62 66 64 64 61 62 64 63 64 75 77 80 78 71 64 64 55 46 39 33 30 27 24 25 24 24 26 28 31 34 38 42 41 41 47 45 44 44 48 39
19 38 50 58 64 64 63 63 62 61 66 69 77 80 80 78 76 60 51 40 34 31 28 24 22 24 24 26 29 31 32 36 37 44 47 44 44 46 53 50 53 45 50
24 37 53 58 61 64 64 62 62 64 65 72 74 78 74 68 62 49 40 33 29 26 24 25 28 28 29 29 38 41 44 47 45 46 43 46 52 58 59 54 56 53 57
27 32 52 62 62 61 63 65 66 65 63 64 65 60 57 49 45 36 32 29 28 27 26 29 37 46 26 53 51 50 45 47 49 49 45 43 55 49 51 54 59 61 67
26 36 49 59 60 60 62 66 63 60 63 62 57 55 51 46 41 31 28 30 30 30 32 34 36 38 40 52 52 53 49 48 49 49 49 45 37 49 48 52 55 55 56
30 32 38 53 57 55 57 58 59 57 57 59 55 45 39 35 30 29 30 31 31 33 35 37 39 42 41 54 56 56 54 51 51 49 48 49 49 49 52 54 58 57 55
36 38 34 44 56 56 52 52 50 48 46 44 41 37 33 30 29 33 33 34 35 38 40 41 42 40 40 55 55 55 47 47 47 45 47 49 51 55 58 63 66 61 58
42 45 43 47 56 56 51 50 48 45 45 40 37 33 32 30 32 34 38 39 39 42 43 45 41 45 42 50 53 57 51 50 50 46 46 50 50 55 58 62 66 78 77
48 49 51 55 56 52 49 52 48 47 42 38 34 34 32 33 34 41 43 45 45 46 44 43 41 40 41 41 51 61 58 56 54 55 52 47 51 56 60 62 69 77 67
54 58 61 61 55 51 51 53 50 44 39 38 42 40 38 37 43 53 56 52 47 43 42 41 42 44 40 47 52 58 63 61 62 61 53 52 59 63 64 63 64 68 61
54 60 59 60 59 54 52 51 48 41 40 41 40 39 42 46 52 60 64 47 42 41 40 41 41 43 45 47 51 59 58 61 62 59 60 61 63 65 67 65 62 59 55
49 54 56 57 54 48 48 45 41 39 38 37 41 46 48 50 50 54 48 42 41 40 38 40 45 49 51 51 52 55 59 56 61 59 63 64 62 66 62 58 52 51 55
53 55 55 54 50 45 44 41 38 34 38 44 46 48 50 50 49 44 42 40 37 39 39 50 56 64 64 56 57 62 61 65 65 68 74 71 70 64 57 55 55 60 62
52 55 55 53 48 43 42 40 35 35 40 44 46 53 51 50 47 47 57 60 54 63 64 62 64 59 56 58 61 62 61 64 65 71 79 73 66 63 60 62 64 68 70
Wind_Speed
8 5 11 12 12 12 14 15 14 12 9 7 8 6 6 4 3 4 6 6 6 6 6 5 5 4 4 4 5 5 6 3 2 3 3 3 2 1 1 2 4 3 3
8 5 9 12 12 13 13 13 14 14 11 8 6 5 6 5 4 4 5 5 6 5 5 5 5 5 4 5 4 4 3 3 0 2 2 4 4 4 2 2 3 3 2
10 9 8 10 13 14 13 14 14 14 13 11 7 5 5 4 3 4 4 4 5 4 3 4 4 3 4 4 3 2 3 3 2 2 3 1 1 5 4 3 4 4 2
6 1 3 9 11 14 12 14 15 14 13 14 11 13 9 7 5 5 5 4 6 5 4 4 4 4 3 4 3 2 2 1 3 2 2 4 3 2 3 4 4 3 3
11 10 9 12 13 11 13 12 13 14 14 13 13 11 10 7 6 6 8 6 5 5 5 3 5 4 3 3 4 3 2 2 3 2 1 2 2 2 2 2 3 4 3
17 14 10 7 14 12 13 13 15 15 14 15 15 14 13 11 9 9 8 6 5 4 5 5 4 5 5 4 3 4 4 4 3 3 2 3 2 2 2 3 4 5 4
16 14 15 13 13 14 16 14 17 17 16 16 16 15 14 14 14 12 9 9 6 6 7 6 5 4 4 4 4 5 4 3 3 3 3 3 3 3 3 3 4 4 4
8 17 18 16 14 14 13 15 19 17 17 16 15 12 12 8 8 11 10 8 7 7 9 7 6 7 6 4 4 4 3 4 3 5 4 2 3 2 2 2 4 5 5
6 7 9 17 15 15 14 17 15 13 15 15 13 12 11 11 9 11 10 8 9 7 9 9 8 8 7 5 5 4 4 4 4 4 2 2 2 1 2 2 3 3 4
6 8 9 11 11 14 14 16 16 17 14 14 14 14 19 13 10 9 11 11 10 11 10 9 10 8 8 5 5 5 3 4 3 2 2 1 2 2 2 2 3 4 5
4 5 6 9 11 12 11 13 15 16 15 16 12 11 10 14 11 9 10 11 12 11 11 10 10 9 8 6 5 5 4 3 2 2 1 2 2 3 3 3 3 5 5
4 5 6 7 9 9 7 12 9 11 12 14 14 12 10 12 11 11 12 11 13 12 11 10 9 9 7 6 5 4 3 1 0 1 2 3 2 3 4 4 5 5 6
10 7 7 8 8 9 9 11 11 11 11 11 13 12 11 13 9 12 11 12 12 12 10 10 9 9 7 6 4 3 2 1 1 1 2 3 4 4 4 5 5 5 7
12 9 8 5 7 8 10 10 9 11 12 13 14 14 12 13 12 9 11 10 12 12 11 9 9 7 7 5 4 2 1 0 1 1 3 4 5 6 5 6 6 7 7
11 10 8 6 5 8 7 6 7 10 12 14 14 15 13 13 13 11 13 10 12 11 10 10 8 7 6 4 3 3 1 2 3 3 4 5 5 6 9 7 7 8 8
9 9 9 7 7 7 8 5 6 8 11 12 13 14 14 14 13 12 11 11 12 10 10 9 8 6 5 6 3 1 2 2 4 5 5 5 6 8 11 13 15 13 9
7 7 10 9 8 10 10 11 12 10 10 11 12 13 13 14 13 12 12 12 11 10 9 8 7 7 6 5 2 0 3 4 5 5 5 6 6 7 7 11 15 15 18
8 7 7 9 10 9 11 11 10 10 12 13 13 13 13 14 13 13 12 11 10 9 8 7 6 6 5 4 1 2 4 5 5 6 6 7 8 8 9 9 10 10 11
6 7 6 8 10 11 11 13 12 10 11 12 13 13 14 14 13 13 12 10 9 8 6 6 6 5 4 5 1 3 4 5 5 6 6 7 7 11 14 10 12 12 11
3 4 4 7 10 11 13 13 13 13 13 14 13 13 13 14 13 12 11 8 8 7 6 6 4 4 3 5 3 3 4 5 4 6 6 10 9 12 13 10 11 12 11
4 3 6 8 10 12 12 12 13 13 12 12 12 12 11 12 13 11 9 8 8 7 5 5 4 4 4 3 4 4 4 4 5 5 6 5 12 13 16 18 11 12 13
5 6 6 7 9 11 12 12 12 11 13 13 13 12 12 10 9 11 8 8 7 6 6 5 3 3 4 5 4 4 6 8 6 6 6 7 15 18 20 17 20 19 18
7 7 8 8 7 9 10 12 12 14 14 14 13 13 11 10 9 10 8 6 5 5 4 4 3 3 3 2 5 6 7 7 6 5 9 16 17 18 14 16 19 18 7
8 8 10 10 10 10 10 11 15 15 15 15 14 12 12 10 8 7 6 5 5 4 4 3 3 2 2 3 2 1 3 6 7 8 7 13 18 13 12 11 9 6 6
8 9 11 11 11 11 11 13 16 17 16 14 12 11 9 9 8 6 4 4 3 2 3 3 2 2 3 2 3 6 5 5 7 10 6 7 5 6 6 6 6 6 6
8 9 10 10 13 15 13 14 15 16 17 14 10 9 8 7 7 6 4 4 4 5 4 2 3 3 5 7 8 9 12 11 13 6 6 6 6 6 7 7 7 6 9
Wind_Direction
157 203 215 209 192 192 186 184 177 176 169 173 172 169 172 164 163 151 147 158 150 158 153 148 146 153 155 139 137 126 131 116 144 141 145 150 157 160 181 166 130 127 92
166 183 204 215 203 199 187 189 187 178 181 174 174 168 163 178 157 127 156 158 159 160 163 163 157 147 139 148 164 159 128 102 125 270 189 172 176 179 193 200 158 161 135
170 146 243 221 207 206 198 196 189 185 177 173 158 155 119 108 133 167 154 158 159 169 168 142 159 161 135 127 147 161 206 127 96 35 312 177 233 145 156 195 198 180 222
156 193 184 265 222 220 206 200 191 186 183 174 164 171 171 172 177 168 148 154 157 160 154 138 162 155 116 130 134 117 104 225 128 134 51 34 3 296 169 174 197 203 247
180 193 215 207 244 208 213 213 196 187 185 183 181 178 178 167 147 153 142 153 147 159 156 158 156 141 91 108 122 113 89 38 107 33 149 63 28 13 322 306 159 186 228
196 199 198 231 258 218 209 198 204 196 189 183 192 185 178 164 158 163 164 160 149 154 156 159 167 126 122 134 112 93 88 70 73 83 48 22 357 24 339 308 310 331 311
202 202 199 212 227 209 211 197 205 197 193 191 194 191 181 167 168 164 163 162 163 161 167 161 151 124 111 130 111 102 100 84 81 52 69 51 44 16 353 324 301 308 310
218 196 203 200 213 208 198 200 201 200 195 193 190 185 184 170 172 169 157 159 169 165 159 156 150 134 137 124 114 107 92 99 80 72 43 44 57 22 6 331 320 297 277
227 241 237 229 225 211 206 206 204 208 197 190 184 174 173 169 175 166 159 170 145 151 158 154 147 141 133 144 139 112 116 93 70 81 72 359 44 28 332 306 284 280 292
222 237 246 243 249 231 208 204 201 199 193 196 190 187 166 161 160 160 152 160 145 151 161 154 147 137 135 143 106 100 108 115 85 86 34 9 338 331 270 269 279 276 275
219 237 235 255 255 236 202 208 201 198 185 185 185 179 168 146 155 154 162 155 141 150 156 151 138 138 133 141 134 122 128 116 113 112 330 308 321 298 308 292 276 270 271
256 233 252 236 251 245 224 216 192 191 185 171 177 160 147 134 146 162 148 147 147 153 150 140 132 130 138 136 140 133 123 117 176 356 313 295 299 291 293 282 281 281 283
282 273 205 218 227 230 230 208 197 175 167 154 139 144 144 134 152 142 142 145 146 137 138 126 132 136 137 130 126 120 127 100 16 328 294 296 296 293 292 298 292 288 288
280 267 275 228 194 213 214 208 184 158 155 148 147 144 143 133 135 147 137 144 135 132 131 128 128 128 125 120 118 114 105 165 261 272 272 287 289 286 292 287 287 286 287
284 260 247 237 216 181 181 182 132 157 166 151 141 138 135 128 140 139 132 141 127 122 124 126 122 121 122 122 125 130 208 252 273 267 263 262 270 306 285 284 290 298 298
286 267 240 219 198 193 172 142 154 155 150 138 131 128 136 138 138 135 133 131 117 131 129 125 118 117 120 114 112 320 269 254 262 271 273 279 275 268 282 283 279 275 285
294 245 228 225 205 169 171 165 151 139 126 121 123 127 131 135 137 140 135 127 133 127 122 123 130 130 126 136 130 293 278 280 268 278 291 293 293 294 277 290 292 286 280
318 287 244 208 198 177 158 148 145 141 135 138 145 146 142 140 141 135 133 131 129 128 129 131 130 138 132 127 120 286 278 275 276 276 281 283 287 291 301 293 288 287 287
320 310 270 213 187 175 173 159 155 149 145 150 151 149 147 142 140 136 132 128 123 124 129 136 144 142 140 147 181 275 273 272 273 276 279 280 288 291 299 304 299 297 293
300 299 255 198 183 183 169 169 167 160 160 158 153 148 145 141 136 132 126 123 125 130 134 128 138 139 174 173 217 265 284 277 283 287 284 282 276 287 294 297 297 294 297
282 235 200 202 192 181 175 177 169 169 154 144 140 139 139 134 125 120 127 128 123 120 129 143 160 185 199 205 222 253 279 290 303 298 296 296 301 305 301 300 298 292 300
215 201 209 193 198 175 179 172 167 148 143 140 132 128 123 122 125 122 117 115 126 146 154 167 175 189 199 209 243 255 280 292 292 292 297 309 312 305 301 306 300 305 313
218 197 196 193 174 180 183 163 152 141 138 133 130 124 119 121 120 126 123 136 151 159 164 175 186 186 172 220 227 254 280 286 284 295 296 303 305 305 308 305 307 306 298
212 201 198 195 184 185 181 160 148 144 139 133 129 125 124 126 128 113 141 150 165 170 169 174 188 185 214 222 220 264 287 285 295 303 305 304 299 305 295 296 297 300 300
202 189 190 189 186 183 179 153 151 149 141 132 128 129 132 130 121 116 148 164 149 149 169 162 178 214 236 241 312 295 295 299 296 308 304 290 294 303 303 306 313 318 318
202 202 203 187 176 172 160 157 156 148 137 129 133 141 130 125 118 140 131 73 106 159 185 225 237 275 269 285 294 299 299 302 300 300 292 300 303 304 311 314 318 312 306